Regional Weather Roundup
Issued by NWS

Home | Current Version | Previous Version | Graphics & Text | Print | Product List | Glossary On
Versions: 1 2 3 4 5 6 7 8 9 10 11 12 13 14 15 16 17 18 19 20 21 22 23 24 25 26 27 28 29 30 31 32 33 34 35 36 37 38 39 40 41 42 43 44 45 46 47 48 49 50
000
ASUS43 KMKX 221511
RWRWI

WISCONSIN REGIONAL WEATHER ROUNDUP
NATIONAL WEATHER SERVICE MILWAUKEE/SULLIVAN WI
1000 AM CDT TUE MAY 22 2018

NOTE: "FAIR" INDICATES FEW OR NO CLOUDS BELOW 12,000 FEET WITH NO
SIGNIFICANT WEATHER AND/OR OBSTRUCTIONS TO VISIBILITY.

WIZ001-002-006>008-014>016-023>028-221600-
NORTHWEST WISCONSIN

CITY           SKY/WX    TMP DP  RH WIND       PRES   REMARKS
SUPERIOR ARPT  CLOUDY    65  53  65 SW3       30.04S
ASHLAND        FAIR      68  53  58 CALM      30.04S
HAYWARD        CLOUDY    64  54  69 N7        30.06R
SIREN          FAIR      65  54  66 CALM      30.05S
CUMBERLAND     CLOUDY    59  52  77 CALM      30.07R
RICE LAKE      CLOUDY    59  54  83 CALM      30.08R
CHETEK         CLOUDY    58  54  87 CALM      30.07S
LADYSMITH      CLOUDY    59  55  87 CALM      30.08S
EAU CLAIRE     CLOUDY    59  55  87 W3        30.07R
MENOMONIE      CLOUDY    60  55  82 CALM      30.07R
NEW RICHMOND   CLOUDY    60  54  81 CALM      30.09R
OSCEOLA        CLOUDY    62  55  78 S6        30.10R
$$

WIZ003>005-009-010-017-018-221600-
NORTH CENTRAL WISCONSIN

CITY           SKY/WX    TMP DP  RH WIND       PRES   REMARKS
MANITOWISH WTR CLOUDY    64  53  65 CALM      30.04S
ARBOR VITAE    FAIR      63  54  72 CALM      30.05S
WOODRUFF       FAIR      63  54  72 CALM      30.05S
RHINELANDER    PTSUNNY   66  54  65 CALM      30.05S
EAGLE RIVER    FAIR      64  49  59 N5        30.04S
LAND O LAKES   FAIR      65  48  52 N3        30.05F
PHILLIPS       PTSUNNY   63  56  79 CALM      30.04F
TOMAHAWK       CLOUDY    61  54  77 NW3       30.06R
MEDFORD        CLOUDY    58  55  89 NE3       30.06R
MERRILL        PTSUNNY   63  56  78 CALM      30.05S
$$

WIZ029-030-035-036-043>047-221600-
CENTRAL WISCONSIN

CITY           SKY/WX    TMP DP  RH WIND       PRES   REMARKS
WAUSAU         FAIR      62  54  74 E3        30.03S
MOSINEE        MOSUNNY   61  55  82 CALM      30.06S
MARSHFIELD     CLOUDY    58  55  90 VRB3      30.05R
STEVENS POINT  CLOUDY    56  54  92 CALM      30.06S
WAUPACA        CLOUDY    60  53  77 CALM      30.06S
WAUTOMA        CLOUDY    56  52  86 CALM      30.07R
WISC RAPIDS    CLOUDY    58  53  84 SW3       30.07R
CAMP DOUGLAS   CLOUDY    55  55 100 CALM      30.07R
$$

WIZ011>013-019>022-031-037>040-048>050-221600-
NORTHEAST WISCONSIN

CITY           SKY/WX    TMP DP  RH WIND       PRES   REMARKS
ANTIGO         CLOUDY    59  56  89 CALM      30.06S
SHAWANO        FAIR      61  54  77 NE5       30.05S
OCONTO         CLOUDY    55  50  84 CALM      30.05S
STURGEON BAY   CLOUDY    54  51  90 E3        30.05F
GREEN BAY      CLOUDY    57  52  83 NE3       30.05F
MANITOWOC      CLOUDY    53  50  89 N5        30.07R
APPLETON       CLOUDY    54  52  94 CALM      30.05R
CLINTONVILLE   CLOUDY    60  52  76 N3        30.05S
OSHKOSH        CLOUDY    55  51  86 E3        30.05S
$$

WIZ032>034-041-042-053>061-221600-
SOUTHWEST WISCONSIN

CITY           SKY/WX    TMP DP  RH WIND       PRES   REMARKS
LA CROSSE      CLOUDY    61  56  83 NW5       30.08R
SPARTA         CLOUDY    54  52  93 CALM      30.09R
VIROQUA        CLOUDY    58  58 100 W3        30.07S
BOSCOBEL       CLOUDY    60  57  89 CALM      30.07R
PRAIRIE DU CHI CLOUDY    63  56  77 N3        30.06S
PLATTEVILLE    CLOUDY    60  60 100 NW5       30.07S
$$

WIZ056-057-062-063-064-067-068-221600-
SOUTH CENTRAL WISCONSIN

CITY           SKY/WX    TMP DP  RH WIND       PRES   REMARKS
REEDSBURG      CLOUDY    55  55 100 CALM      30.07R
BARABOO/DELLS  CLOUDY    54  53  94 CALM      30.07R
LONE ROCK      CLOUDY    60  57  89 CALM      30.06S
MINERAL POINT  CLOUDY    59  59 100 W3        30.07R
MADISON        CLOUDY    56  53  90 N7        30.06R
MIDDLETON      CLOUDY    58  55  92 CALM      30.07R
WATERTOWN      CLOUDY    55  55 100 CALM      30.06R
MONROE         CLOUDY    59  57  94 NW5       30.06R
JANESVILLE     CLOUDY    61  59  94 NW5       30.05S
$$

WIZ051-052-058>065-066-070>072-221600-
SOUTHEAST WISCONSIN

CITY           SKY/WX    TMP DP  RH WIND       PRES   REMARKS
MILWAUKEE      CLOUDY    54  52  93 N3        30.06R FOG
WAUKESHA       CLOUDY    52  52 100 CALM      30.06R FOG
MILWAUKEE/TIMM CLOUDY    52  50  93 CALM      30.06S FOG
RACINE         CLOUDY    52  52 100 N8        30.07R
BURLINGTON     CLOUDY    55  53  92 NW5       30.06R
KENOSHA        CLOUDY    55  51  86 N3        30.05R
FOND DU LAC    CLOUDY    55  52  89 N5        30.06S
SHEBOYGAN      CLOUDY    53  51  93 N5        30.06R
WEST BEND      CLOUDY    54  54 100 CALM      30.05S
JUNEAU         CLOUDY    54  52  95 N3        30.07S
$$

LSZ147-162-221600-
LAKE SUPERIOR

STATION/POSITION TIME  TEMP    WIND        PRES    WAVE
                       AIR SEA DIR/SP/G            HT/PER
                 (UTC) (F)     (DEG/KT/KT) (MB)    (FT/S)
W MID LAKE BUOY  1450   40 36  230/  8/  8 1016.9F   0
DEVILS ISLAND    1500   52     230/  8/ 10 1017.2F
SAXON HARBOR     1440   62      40/  3/  4 1016.9R
$$

LMZ867-665-643>646-221600-
LAKE MICHIGAN

STATION/POSITION TIME  TEMP    WIND        PRES    WAVE
                       AIR SEA DIR/SP/G            HT/PER
                 (UTC) (F)     (DEG/KT/KT) (MB)    (FT/S)
N MID LAKE BUOY  1450   46 38     CALM     1017.2R   0
NORTHPORT PIER   1440   50     320/  4/  4 1017.3S
KEWAUNEE LAKESHO 1442   51      90/  2/  3 1017.0S
SHEBOYGAN LAKESH 1500   48     350/  5/  6 1018.1R
PORT WASHINGTON  1430   50      50/  5/  6 1018.6R
ATWATER BUOY     1407   47 47   20/  8/  8 1017.7
MILWAUKEE LAKESH 1450   48      30/  9/  9   N/A
KENOSHA   LAKESH 1500   49                 1017.9
$$

TC  - TEMPERATURE IN CELSIUS
VSB - VISIBILITY IN STATUTE MILES
WCI - WIND CHILL INDEX
HX  - HEAT INDEX




USA.gov is the U.S. government's official web portal to all federal, state and local government web resources and services.